Location: ???????
(55.7088°N, 38.1968°E)
Time: 18:51:34
(UTC+00:00)

Daily predictions for brighter satellites

Satellite Brightness Start Highest point End
(mag) Time Altitude Azimuth Time Altitude Azimuth Time Altitude Azimuth
Cosmos 1553 Rocket 4.2 18:50:13 10° N 18:56:30 66° ENE 19:02:37 10° SSE
Cosmos 1867 4.0 18:52:11 10° NW 18:57:31 56° SW 19:02:50 10° SSE
Cosmos 2369 Rocket 2.3 18:52:15 10° SSW 18:57:49 62° ESE 19:03:23 10° NE
IGS 5A 4.5 18:55:20 10° S 18:59:19 44° W 19:03:20 10° NNW
ATLAS CENTAUR R/B 2.4 18:57:02 10° S 19:00:38 26° ESE 19:04:05 10° ENE
STARLINK-1241 3.7 18:56:57 10° W 19:01:02 59° S 19:05:07 10° ESE
Okean 2 3.4 18:57:34 10° S 19:01:44 88° E 19:05:57 10° NNE
SJ 16-02 3.8 18:59:15 10° N 19:02:02 16° NE 19:04:48 10° ENE
Cosmos 1461 4.3 18:58:13 10° WSW 19:02:24 47° NNW 19:06:47 10° NE
CARTOSAT-1 3.8 18:58:10 10° S 19:02:28 71° WSW 19:06:49 10° NNW
STARLINK-1238 4.3 18:59:34 10° W 19:03:26 39° SSW 19:07:18 10° SE
STARLINK-1239 3.7 19:01:55 10° W 19:06:00 58° S 19:10:05 10° ESE
STARLINK-1201 4.4 19:04:33 10° W 19:08:24 37° SSW 19:12:14 10° SE
STARLINK-1240 3.7 19:06:51 10° W 19:10:56 57° S 19:15:00 10° ESE
STARLINK-1206 4.4 19:09:31 10° W 19:13:20 36° SSW 19:17:07 10° SE
Cosmos 1777 Rocket 4.5 19:08:31 10° NNW 19:13:41 55° NE 19:18:51 10° SE
CENTAUR R/B 3.8 19:07:35 10° NW 19:15:03 47° SW 19:23:14 10° SSE
STARLINK-1216 3.8 19:11:51 10° W 19:15:55 56° S 19:19:59 10° ESE
STARLINK-1205 4.5 19:14:30 10° W 19:18:17 34° SSW 19:22:02 10° SE
Resurs 01 Rocket 4.2 19:15:52 10° SW 19:18:40 16° W 19:21:30 10° NW
STARLINK-1237 3.8 19:16:49 10° W 19:20:53 55° S 19:24:56 10° ESE
USA 215 3.4 19:14:18 10° E 19:20:53 83° N 19:27:27 10° WNW
Cosmos 1908 4.5 19:19:14 10° N 19:22:38 30° ENE 19:26:02 10° SE
Cosmos 1536 Rocket 4.0 19:19:19 10° SSE 19:23:27 45° E 19:27:40 10° NNE
ATLAS 3B R/B 2.9 19:17:08 10° NW 19:23:48 64° SW 19:30:41 10° SSE
Cosmos 1544 Rocket 3.9 19:19:57 10° NNW 19:24:16 62° W 19:28:34 10° S
SPOT 5 3.7 19:19:47 10° S 19:25:02 57° W 19:30:20 10° NNW
STARLINK-1202 3.8 19:21:48 10° W 19:25:51 54° S 19:29:54 10° ESE
Cosmos 2292 Rocket 4.4 19:25:08 10° SE 19:27:30 19° E 19:29:43 10° NE
STARLINK-52 3.8 19:25:52 10° SW 19:28:42 28° SSE 19:31:32 10° E
Terra 2.2 19:24:27 10° S 19:29:11 64° WSW 19:33:57 10° NNW
STARLINK-1203 3.8 19:26:25 10° W 19:30:29 53° SSW 19:34:33 10° ESE
Cosmos 1655 Rocket 4.3 19:24:52 10° SSE 19:30:55 55° E 19:37:03 10° NNE
NOSS 2-2 (D) 4.1 19:27:20 10° WSW 19:31:03 60° NNW 19:35:38 10° NE
EXPRESS MD2 4.3 19:30:05 10° WSW 19:33:44 45° S 19:40:50 10° E
STARLINK-1246 3.8 19:31:45 10° W 19:35:47 52° SSW 19:39:49 10° ESE
Cosmos 1726 2.2 19:32:53 10° N 19:36:39 76° ENE 19:40:12 11° SSE
Meteor 2-10 4.0 19:34:35 10° NNW 19:39:39 83° WSW 19:44:43 10° S
STARLINK-1224 3.8 19:36:42 10° W 19:40:44 51° SSW 19:44:46 10° ESE
APEX 4.1 19:36:53 10° SW 19:42:51 89° NW 19:47:35 10° NE
Cosmos 1470 3.7 19:39:50 10° NNW 19:43:31 41° W 19:47:09 10° SSW
SeaSat 1 4.1 19:41:39 10° ENE 19:44:55 17° ESE 19:48:02 10° SE
STARLINK-1225 3.9 19:41:42 10° W 19:45:42 49° SSW 19:49:44 10° ESE
Cosmos 1674 3.9 19:43:49 11° SSE 19:46:49 28° E 19:50:07 10° NNE
COSMOS 2455 3.0 19:43:50 10° SSW 19:49:39 54° ESE 19:55:32 10° NE
Cosmos 1606 Rocket 4.0 19:45:59 10° N 19:50:15 52° ENE 19:54:11 12° SSE
STARLINK-1444 2.7 19:48:40 10° SW 19:50:35 29° SSE 19:52:33 10° ESE
STARLINK-1230 3.9 19:46:39 10° W 19:50:39 48° SSW 19:54:39 10° ESE
Cosmos 1174 3.8 19:47:42 10° SSW 19:50:58 49° SE 19:54:57 10° NE
Cosmos 2058 Rocket 4.3 19:47:05 10° N 19:51:08 32° ENE 19:55:11 10° SE
STARLINK-1452 2.7 19:49:18 10° SW 19:51:13 29° SSE 19:53:10 10° ESE
NOSS 3-4 (A) 3.5 19:45:39 10° SSW 19:51:34 65° SE 19:58:00 10° NE
NOSS 3-4 (C) 3.5 19:45:45 10° SSW 19:51:40 64° SE 19:58:06 10° NE
STARLINK-1392 2.7 19:50:17 10° SW 19:52:08 29° SSE 19:54:02 10° ESE
STARLINK-1399 2.7 19:50:17 10° SW 19:52:10 29° SSE 19:54:04 10° ESE
STARLINK-1393 2.7 19:50:20 10° SW 19:52:11 29° SSE 19:54:05 10° ESE
STARLINK-1394 2.7 19:50:21 10° SW 19:52:12 29° SSE 19:54:07 10° ESE
STARLINK-1395 2.7 19:50:25 10° SW 19:52:15 29° SSE 19:54:08 10° ESE
STARLINK-1397 2.7 19:50:23 10° SW 19:52:15 29° SSE 19:54:10 10° ESE
STARLINK-1396 2.7 19:50:24 10° SW 19:52:15 29° SSE 19:54:10 10° ESE
STARLINK-1414 2.7 19:50:25 10° SW 19:52:16 29° SSE 19:54:10 10° ESE
STARLINK-1408 2.7 19:50:27 10° SW 19:52:19 29° SSE 19:54:12 10° ESE
STARLINK-1404 2.7 19:50:28 10° SW 19:52:19 29° SSE 19:54:14 10° ESE
STARLINK-1416 2.7 19:50:29 10° SW 19:52:20 29° SSE 19:54:14 10° ESE
STARLINK-1415 2.7 19:50:28 10° SW 19:52:21 29° SSE 19:54:16 10° ESE
STARLINK-1450 2.7 19:50:29 10° SW 19:52:21 29° SSE 19:54:16 10° ESE
STARLINK-1401 2.7 19:50:31 10° SW 19:52:24 29° SSE 19:54:19 10° ESE
STARLINK-1406 2.7 19:50:33 10° SW 19:52:24 29° SSE 19:54:18 10° ESE
STARLINK-1417 2.7 19:50:35 10° SW 19:52:27 29° SSE 19:54:23 10° ESE
STARLINK-1419 2.7 19:50:36 10° SW 19:52:28 29° SSE 19:54:23 10° ESE
STARLINK-1402 2.7 19:50:36 10° SW 19:52:28 29° SSE 19:54:23 10° ESE
STARLINK-1413 2.7 19:50:36 10° SW 19:52:28 29° SSE 19:54:24 10° ESE
STARLINK-1422 2.7 19:50:41 10° SW 19:52:33 29° SSE 19:54:29 10° ESE
STARLINK-1453 2.7 19:50:41 10° SW 19:52:34 29° SSE 19:54:30 10° ESE
STARLINK-1398 2.7 19:50:41 10° SW 19:52:35 30° SSE 19:54:32 10° ESE
STARLINK-1440 2.7 19:50:42 10° SW 19:52:35 29° SSE 19:54:31 10° ESE
STARLINK-1436 (VISORSAT) 2.7 19:50:43 10° SW 19:52:37 30° SSE 19:54:33 10° ESE
STARLINK-1420 2.7 19:50:44 10° SW 19:52:37 29° SSE 19:54:32 10° ESE
STARLINK-1460 2.7 19:50:47 10° SW 19:52:39 29° SSE 19:54:35 10° ESE
STARLINK-1410 2.7 19:50:51 10° SW 19:52:44 29° SSE 19:54:39 10° ESE
STARLINK-1423 2.7 19:50:52 10° SW 19:52:44 29° SSE 19:54:39 10° ESE
STARLINK-1421 2.7 19:50:52 10° SW 19:52:44 29° SSE 19:54:39 10° ESE
STARLINK-1400 2.7 19:50:51 10° SW 19:52:44 29° SSE 19:54:40 10° ESE
STARLINK-1454 2.7 19:50:52 10° SW 19:52:45 29° SSE 19:54:40 10° ESE
Cosmos 1340 Rocket 3.0 19:48:41 10° NNW 19:52:46 73° WSW 19:56:34 12° S
STARLINK-1458 2.7 19:50:54 10° SW 19:52:46 29° SSE 19:54:41 10° ESE
STARLINK-1445 2.7 19:50:55 10° SW 19:52:49 29° SSE 19:54:45 10° ESE
STARLINK-1446 2.7 19:50:58 10° SW 19:52:51 29° SSE 19:54:47 10° ESE
STARLINK-1407 2.7 19:50:58 10° SW 19:52:52 29° SSE 19:54:48 10° ESE
STARLINK-1405 2.6 19:51:02 10° SW 19:52:53 29° SSE 19:54:46 10° ESE
STARLINK-1457 2.7 19:51:01 10° SW 19:52:54 29° SSE 19:54:50 10° ESE
STARLINK-1370 2.7 19:51:00 10° SW 19:52:54 29° SSE 19:54:50 10° ESE
STARLINK-1456 2.7 19:51:01 10° SW 19:52:54 29° SSE 19:54:50 10° ESE
STARLINK-1451 2.7 19:51:02 10° SW 19:52:54 29° SSE 19:54:50 10° ESE
STARLINK-1437 2.7 19:51:02 10° SW 19:52:55 29° SSE 19:54:51 10° ESE
STARLINK-1409 2.7 19:51:03 10° SW 19:52:55 29° SSE 19:54:51 10° ESE
STARLINK-1455 2.7 19:51:02 10° SW 19:52:55 29° SSE 19:54:52 10° ESE
STARLINK-1439 2.6 19:51:05 10° SW 19:52:56 29° SSE 19:54:49 10° ESE
STARLINK-1447 2.7 19:51:03 10° SW 19:52:56 29° SSE 19:54:52 10° ESE
STARLINK-1441 2.7 19:51:05 10° SW 19:52:58 29° SSE 19:54:54 10° ESE
STARLINK-1443 2.7 19:51:06 10° SW 19:53:00 30° SSE 19:54:56 10° ESE
STARLINK-1351 2.7 19:51:09 10° SW 19:53:02 29° SSE 19:54:58 10° ESE
STARLINK-1418 2.7 19:51:09 10° SW 19:53:02 29° SSE 19:54:58 10° ESE
STARLINK-1442 2.7 19:51:09 10° SW 19:53:03 29° SSE 19:54:58 10° ESE
STARLINK-1434 2.7 19:51:09 10° SW 19:53:03 30° SSE 19:54:59 10° ESE
STARLINK-1403 2.7 19:51:09 10° SW 19:53:03 30° SSE 19:54:59 10° ESE
STARLINK-1448 2.7 19:51:11 10° SW 19:53:04 29° SSE 19:55:00 10° ESE
STARLINK-1433 2.7 19:51:13 10° SW 19:53:06 29° SSE 19:55:01 10° ESE
STARLINK-1449 2.7 19:51:13 10° SW 19:53:07 30° SSE 19:55:03 10° ESE
STARLINK-1438 2.7 19:51:17 10° SW 19:53:10 29° SSE 19:55:05 10° ESE
STARLINK-1411 2.7 19:51:23 10° SW 19:53:16 29° SSE 19:55:12 10° ESE
STARLINK-1412 2.7 19:51:23 10° SW 19:53:16 30° SSE 19:55:13 10° ESE
FALCON 9 DEB 3.8 19:51:18 10° SW 19:54:22 31° SSE 19:57:28 10° E
STARLINK-1243 3.9 19:51:39 10° W 19:55:38 47° SSW 19:59:37 10° ESE
STARLINK-60 3.1 19:53:29 10° WSW 19:56:33 47° S 19:59:38 10° E
Cosmos 1025 Rocket 3.1 19:54:25 10° SSW 19:58:43 80° WNW 20:03:05 10° N
Aureole 3 2.6 19:55:37 10° N 19:58:45 80° E 20:01:10 15° SSE
Cosmos 2263 4.4 19:53:36 10° SW 19:59:13 77° NW 20:04:53 10° NNE
COSMOS 2487 3.8 19:56:38 10° NW 19:59:43 30° WSW 20:02:44 10° SSW
STARLINK-1236 4.0 19:56:37 10° W 20:00:35 45° SSW 20:04:33 10° SE
Cosmos 2297 Rocket 2.6 19:57:46 10° NNW 20:03:24 62° NE 20:09:01 10° SE
CZ-4C R/B 4.1 20:02:51 10° ESE 20:03:49 10° ESE 20:04:48 10° E
ALOS 2 3.3 19:59:48 11° SE 20:03:53 46° ENE 20:08:06 10° N
STARLINK-1368 4.5 20:01:17 10° SSW 20:04:39 26° SSE 20:08:02 10° E
Cosmos 1943 Rocket 3.4 20:01:15 10° WSW 20:06:37 46° NW 20:12:04 10° NNE
Cosmos 2219 3.4 20:01:27 10° NNW 20:07:10 74° NE 20:12:46 10° SE
MTI 4.3 20:04:20 10° N 20:07:26 56° WNW 20:10:31 10° SSW
Cosmos 1953 2.9 20:04:06 10° NNW 20:07:58 50° W 20:11:39 11° S
STARLINK-1369 4.4 20:05:17 10° SSW 20:08:40 27° SSE 20:12:03 10° E
Cosmos 1992 Rocket 4.2 20:05:03 10° SW 20:10:15 74° WNW 20:15:31 10° NNE
STARLINK-1269 4.1 20:06:34 10° W 20:10:30 42° SSW 20:14:26 10° SE
RESURS DK-1 2.9 20:06:49 11° S 20:10:32 41° ESE 20:14:28 10° NE
ERBS 2.2 20:09:17 10° WNW 20:12:36 72° SSW 20:15:56 10° ESE
Cosmos 1271 Rocket 3.7 20:09:13 10° SW 20:13:01 47° WNW 20:16:54 10° N
STARLINK-1372 4.4 20:09:36 10° SSW 20:13:02 28° SSE 20:16:29 10° E
Lacrosse 4 Rocket 2.4 20:09:05 10° NW 20:13:19 46° NE 20:17:26 10° ESE
Cosmos 2228 3.0 20:09:21 10° N 20:13:38 80° ENE 20:17:13 14° SSE
Cosmos 1626 3.8 20:11:46 12° SE 20:14:21 22° E 20:17:17 10° NE
Spot 4 3.9 20:10:56 13° SSE 20:15:17 83° WSW 20:20:09 10° NNW
STARLINK-1200 4.1 20:11:33 10° W 20:15:27 41° SSW 20:19:21 10° SE
STARLINK-1378 4.3 20:13:54 10° SSW 20:17:23 29° SSE 20:20:53 10° E
Cosmos 921 Rocket 4.0 20:16:00 14° SSE 20:19:07 32° ESE 20:23:02 10° NE
Timation 2 Rocket 4.2 20:13:20 10° NW 20:19:33 58° WSW 20:24:49 13° SSE
ATLAS 2AS CENTAUR R/B 3.1 20:11:52 10° SW 20:19:55 87° SE 20:27:48 10° NE
STARLINK-1192 4.2 20:16:32 10° W 20:20:25 39° SSW 20:24:09 11° SE
SL-4 R/B 2.5 20:15:45 10° WSW 20:20:26 52° S 20:25:08 10° E
STARLINK-1379 4.3 20:18:17 10° SW 20:21:49 31° SSE 20:25:22 10° E
Cosmos 1707 3.7 20:21:07 10° SW 20:24:51 44° WNW 20:28:36 10° N
STARLINK-1244 4.2 20:21:30 10° W 20:25:21 38° SSW 20:28:54 12° SE
STARLINK-1329 4.2 20:21:55 10° SW 20:25:30 32° SSE 20:29:05 10° E
Cosmos 1656 Rocket 4.0 20:20:07 10° SW 20:25:42 69° NW 20:31:15 10° NNE
EO 1 Del DPAF 3.2 20:22:52 10° NNE 20:26:41 74° ESE 20:29:56 14° S
STARLINK-29 3.1 20:26:05 10° WSW 20:29:12 47° S 20:32:19 10° E
STARLINK-1362 4.2 20:26:20 10° SW 20:29:57 33° SSE 20:33:35 10° E
STARLINK-1138 4.3 20:26:29 10° W 20:30:18 36° SSW 20:33:40 12° SE
Cosmos 1726 Rocket 3.5 20:29:14 10° NNW 20:33:35 82° W 20:37:07 15° S
STARLINK-1373 4.1 20:30:46 10° SW 20:34:25 34° SSE 20:38:04 10° E
SL-4 R/B 0.3 20:33:59 23° SSE 20:35:08 82° ENE 20:37:19 10° NNW
STARLINK-1143 4.3 20:31:29 10° W 20:35:16 35° SSW 20:38:28 13° SE
Okean 1-7 Rocket 4.3 20:32:29 15° SSE 20:35:58 43° E 20:40:17 10° NNE
Cosmos 2315 Rocket 4.1 20:29:57 10° NNW 20:36:10 72° W 20:41:41 13° S
Helios 1A 3.5 20:34:19 13° SE 20:37:57 53° ENE 20:42:03 10° N
Cosmos 2098 Rocket 4.4 20:31:46 12° S 20:38:51 82° E 20:46:06 10° NNE
STARLINK-1390 4.1 20:35:13 10° SW 20:38:54 36° SSE 20:42:36 10° E
ATLAS CENTAUR R/B 1.7 20:35:04 10° WSW 20:39:19 68° NW 20:43:18 10° NE
STARLINK-1241 4.4 20:36:29 10° W 20:40:14 33° SSW 20:43:16 14° SSE
Cosmos 1892 Rocket 3.9 20:37:21 15° S 20:40:46 54° E 20:45:02 10° NNE
Cosmos 2227 Rocket 2.2 20:35:31 10° NW 20:41:16 88° ENE 20:46:35 12° SSE
SJ 16-02 1.7 20:37:06 10° NNW 20:41:32 63° ENE 20:45:35 12° SE
Cosmos 2369 Rocket 3.7 20:36:53 10° WSW 20:42:10 39° NW 20:47:27 10° NNE
STARLINK-1365 4.0 20:40:47 10° SW 20:44:33 38° SSE 20:48:19 10° E
STARLINK-1320 3.4 20:42:03 10° SW 20:44:56 35° SSE 20:47:49 10° E
STARLINK-1239 4.4 20:41:29 10° W 20:45:11 32° SSW 20:48:03 15° SSE
STARLINK-1322 3.4 20:42:23 10° SW 20:45:17 35° SSE 20:48:10 10° E
STARLINK-1324 3.4 20:42:41 10° SW 20:45:35 35° SSE 20:48:28 10° E
STARLINK-1294 3.4 20:43:01 10° SW 20:45:54 35° SSE 20:48:48 10° E
STARLINK-1261 3.4 20:43:23 10° SW 20:46:17 35° SSE 20:49:11 10° E
STARLINK-1325 3.4 20:43:44 10° SW 20:46:38 35° SSE 20:49:32 10° E
STARLINK-1333 3.4 20:44:06 10° SW 20:47:00 35° SSE 20:49:54 10° E
STARLINK-1334 3.4 20:44:23 10° SW 20:47:17 35° SSE 20:50:11 10° E
STARLINK-1326 3.4 20:44:43 10° SW 20:47:36 35° SSE 20:50:30 10° E
STARLINK-1323 3.4 20:45:05 10° SW 20:47:58 35° SSE 20:50:53 10° E
STARLINK-1349 3.4 20:45:22 10° SW 20:48:15 35° SSE 20:51:10 10° E
STARLINK-1336 3.4 20:45:42 10° SW 20:48:36 36° SSE 20:51:31 10° E
STARLINK-1331 3.4 20:46:05 10° SW 20:48:58 36° SSE 20:51:53 10° E
STARLINK-1344 3.4 20:46:23 10° SW 20:49:17 36° SSE 20:52:12 10° E
STARLINK-1343 3.4 20:46:45 10° SW 20:49:39 36° SSE 20:52:34 10° E
STARLINK-1346 3.4 20:47:02 10° SW 20:49:57 36° SSE 20:52:54 10° E
STARLINK-1240 4.5 20:46:26 10° W 20:50:06 30° SSW 20:52:48 15° SSE
STARLINK-1328 3.4 20:47:27 10° SW 20:50:22 36° SSE 20:53:17 10° E
Nadezhda 1 Rocket 4.5 20:44:16 10° N 20:50:24 56° ENE 20:56:15 12° SSE
STARLINK-1354 3.4 20:47:45 10° SW 20:50:40 36° SSE 20:53:34 10° E
STARLINK-1347 3.4 20:48:04 10° SW 20:50:58 36° SSE 20:53:53 10° E
STARLINK-1357 3.4 20:48:28 10° SW 20:51:22 36° SSE 20:54:17 10° E
STARLINK-1335 3.4 20:48:45 10° SW 20:51:40 36° SSE 20:54:35 10° E
STARLINK-1327 3.4 20:49:06 10° SW 20:52:01 36° SSE 20:54:56 10° E
STARLINK-1340 3.4 20:49:24 10° SW 20:52:19 37° SSE 20:55:14 10° E
STARLINK-1356 3.4 20:49:46 10° SW 20:52:41 37° SSE 20:55:37 10° E
STARLINK-1345 3.4 20:50:05 10° SW 20:53:00 37° SSE 20:55:56 10° E
Cosmos 1437 3.6 20:51:29 18° SSE 20:53:13 34° E 20:56:01 10° NNE
STARLINK-1355 3.4 20:50:26 10° SW 20:53:21 37° SSE 20:56:17 10° E
STARLINK-1321 3.4 20:50:47 10° SW 20:53:42 37° SSE 20:56:37 10° E
STARLINK-1358 3.4 20:51:09 10° SW 20:54:05 37° SSE 20:57:00 10° E
STARLINK-1332 3.3 20:51:26 10° SW 20:54:22 37° SSE 20:57:17 10° E
STARLINK-1348 3.3 20:51:46 10° SW 20:54:42 37° SSE 20:57:38 10° E
STARLINK-1330 3.3 20:52:07 10° SW 20:55:02 37° SSE 20:57:58 10° E
STARLINK-1363 3.3 20:52:26 10° SW 20:55:21 37° SSE 20:58:17 10° E
STARLINK-1337 3.3 20:52:48 10° SW 20:55:44 38° SSE 20:58:40 10° E
STARLINK-1342 3.3 20:53:07 10° SW 20:56:03 38° SSE 20:58:59 10° E
Cosmos 2084 Rocket 3.7 20:51:36 10° NW 20:56:04 78° NE 21:00:34 10° ESE
STARLINK-1338 3.9 20:52:21 10° SW 20:56:06 41° SSE 20:59:51 10° E
STARLINK-1364 3.3 20:53:28 10° SW 20:56:23 38° SSE 20:59:20 10° E
STARLINK-1376 3.3 20:53:48 10° SW 20:56:44 38° SSE 20:59:39 10° E
STARLINK-1360 3.3 20:54:08 10° SW 20:57:04 38° SSE 21:00:01 10° E
STARLINK-1361 3.3 20:54:29 10° SW 20:57:24 38° SSE 21:00:21 10° E
STARLINK-1367 3.3 20:54:44 10° SW 20:57:42 38° SSE 21:00:40 10° E
STARLINK-1366 3.3 20:55:07 10° SW 20:58:04 38° SSE 21:01:00 10° E
Cosmos 1356 Rocket 3.6 20:53:59 10° NNW 20:58:13 73° ENE 21:01:39 16° SSE
Cosmos 1908 4.4 20:55:03 10° NNW 20:58:30 33° W 21:01:28 13° SSW
Cosmos 2084 3.5 20:58:23 10° SW 21:02:51 81° SE 21:07:20 10° NE
Thor Agena Rocket 4.0 20:58:19 10° NNE 21:03:33 62° WNW 21:08:43 10° SW
SL-14 R/B 3.3 21:00:56 17° S 21:03:44 65° E 21:07:35 10° NNE
STARLINK-1371 3.8 21:00:12 10° SW 21:03:56 43° SSE 21:07:40 10° E
USA 215 3.3 20:57:35 10° SE 21:04:06 67° SSW 21:10:39 10° WNW
STARLINK-52 3.0 21:01:21 10° WSW 21:04:30 52° S 21:07:38 10° E
ATLAS CENTAUR R/B 1.8 21:03:27 10° W 21:05:20 28° SSW 21:06:48 18° SSE
Terra 4.3 21:06:18 10° WSW 21:07:55 11° W 21:09:32 10° WNW
Meteor 2-10 Rocket 4.2 21:03:06 10° N 21:08:09 48° ENE 21:13:01 10° SE
STARLINK-1341 3.8 21:04:24 10° SW 21:08:09 44° SSE 21:11:55 10° E
Meteor 2-5 Rocket 3.8 21:03:44 13° SSW 21:08:44 87° WNW 21:14:29 10° NNE
BREEZE-M DEB 4.4 21:06:29 10° WSW 21:10:30 53° S 21:25:17 10° ESE
Cosmos 1300 2.9 21:07:43 10° NNW 21:11:31 64° W 21:14:16 18° S
Cosmos 2292 Rocket 4.5 21:08:47 10° SW 21:11:32 26° WNW 21:14:06 10° N
STARLINK-1374 3.7 21:09:11 10° WSW 21:13:00 46° SSE 21:16:50 10° E
ATLAS 3B R/B 4.3 21:08:53 10° WNW 21:13:23 19° WSW 21:17:58 10° SSW
Cosmos-2242 4.5 21:12:33 10° N 21:16:23 31° ENE 21:20:11 10° SE
Cosmos 2292 4.1 21:13:20 10° N 21:16:37 89° E 21:18:35 20° S
STARLINK-1339 3.7 21:13:27 10° WSW 21:17:17 47° SSE 21:21:08 10° E
YAOGAN 11 4.0 21:16:52 16° SSE 21:20:16 82° WSW 21:24:36 10° NNW
STARLINK-1377 3.7 21:17:44 10° WSW 21:21:36 48° SSE 21:25:27 10° E
Cosmos 1674 4.0 21:18:46 10° SW 21:22:16 35° WNW 21:25:49 10° N
SeaSat 1 2.4 21:18:11 10° NE 21:23:10 79° ESE 21:27:49 12° SSW
Cosmos 1626 Rocket 3.9 21:20:27 16° SSE 21:23:42 54° E 21:28:00 10° NNE
Uosat 12 SS-18 rocket 4.0 21:19:24 10° NW 21:23:43 71° SW 21:28:07 10° SE
STARLINK-1444 2.4 21:22:11 10° WSW 21:24:13 36° S 21:26:18 10° ESE
STARLINK-1452 2.4 21:22:49 10° WSW 21:24:51 36° S 21:26:52 10° ESE
STARLINK-1392 2.4 21:23:44 10° WSW 21:25:42 35° S 21:26:59 17° SE
STARLINK-1399 2.4 21:23:46 10° WSW 21:25:44 35° S 21:27:09 16° SE
STARLINK-1393 2.4 21:23:48 10° WSW 21:25:46 35° S 21:27:07 17° SE
STARLINK-1394 2.4 21:23:49 10° WSW 21:25:47 35° S 21:27:08 17° SE
STARLINK-1395 2.4 21:23:53 10° WSW 21:25:50 35° S 21:26:53 20° SE
STARLINK-1397 2.4 21:23:52 10° WSW 21:25:50 35° S 21:27:17 16° SE
STARLINK-1396 2.4 21:23:53 10° WSW 21:25:51 35° S 21:27:14 16° SE
STARLINK-1414 2.4 21:23:53 10° WSW 21:25:51 35° S 21:27:07 17° SE
STARLINK-1353 3.7 21:22:01 10° WSW 21:25:53 50° SSE 21:29:45 10° E
STARLINK-1408 2.4 21:23:55 10° WSW 21:25:54 35° S 21:27:09 18° SE
STARLINK-1404 2.4 21:23:56 10° WSW 21:25:55 35° S 21:27:20 16° SE
STARLINK-1416 2.4 21:23:57 10° WSW 21:25:56 35° S 21:27:14 17° SE
STARLINK-1415 2.4 21:23:57 10° WSW 21:25:57 35° S 21:27:29 15° ESE
STARLINK-1450 2.4 21:23:58 10° WSW 21:25:58 35° S 21:27:31 14° ESE
STARLINK-1406 2.4 21:24:01 10° WSW 21:25:59 35° S 21:27:12 18° SE
STARLINK-1401 2.4 21:24:00 10° WSW 21:26:00 35° S 21:27:32 15° ESE
STARLINK-1417 2.4 21:24:04 10° WSW 21:26:03 35° S 21:27:36 14° ESE
STARLINK-1402 2.4 21:24:05 10° WSW 21:26:04 35° S 21:27:36 15° ESE
STARLINK-1413 2.4 21:24:05 10° WSW 21:26:04 35° S 21:27:37 15° ESE
STARLINK-1419 2.4 21:24:06 10° WSW 21:26:04 35° S 21:27:30 16° SE
STARLINK-1422 2.4 21:24:11 10° WSW 21:26:10 35° S 21:27:40 15° ESE
STARLINK-1453 2.4 21:24:11 10° WSW 21:26:11 35° S 21:27:51 13° ESE
STARLINK-1398 2.4 21:24:12 10° WSW 21:26:12 35° S 21:28:02 12° ESE
STARLINK-1420 2.4 21:24:14 10° WSW 21:26:13 35° S 21:27:49 14° ESE
STARLINK-1440 2.4 21:24:14 10° WSW 21:26:14 35° S 21:27:52 14° ESE
STARLINK-1436 (VISORSAT) 2.4 21:24:14 10° WSW 21:26:15 35° S 21:28:06 12° ESE
STARLINK-1460 2.4 21:24:17 10° WSW 21:26:16 35° S 21:27:52 14° ESE
STARLINK-1410 2.4 21:24:21 10° WSW 21:26:21 35° S 21:27:53 15° ESE
STARLINK-1423 2.4 21:24:22 10° WSW 21:26:21 35° S 21:27:45 16° SE
STARLINK-1421 2.4 21:24:23 10° WSW 21:26:21 35° S 21:27:46 16° SE
STARLINK-1400 2.4 21:24:22 10° WSW 21:26:21 35° S 21:27:55 14° ESE
STARLINK-1454 2.4 21:24:23 10° WSW 21:26:22 35° S 21:27:56 14° ESE
STARLINK-1458 2.4 21:24:25 10° WSW 21:26:24 35° S 21:27:53 15° ESE
STARLINK-1445 2.4 21:24:27 10° WSW 21:26:26 35° S 21:28:06 13° ESE
STARLINK-1446 2.4 21:24:29 10° WSW 21:26:29 35° S 21:28:08 13° ESE
STARLINK-1407 2.4 21:24:29 10° WSW 21:26:29 35° S 21:28:06 14° ESE
STARLINK-1405 2.4 21:24:32 10° WSW 21:26:29 35° S 21:27:35 20° SE
STARLINK-1456 2.4 21:24:33 10° WSW 21:26:32 35° S 21:28:01 15° ESE
STARLINK-1457 2.4 21:24:33 10° WSW 21:26:32 35° S 21:28:02 15° ESE
STARLINK-1370 2.4 21:24:32 10° WSW 21:26:32 35° S 21:28:08 14° ESE
STARLINK-1451 2.4 21:24:33 10° WSW 21:26:32 35° S 21:28:01 15° ESE
STARLINK-1439 2.4 21:24:36 10° WSW 21:26:33 35° S 21:27:38 20° SE
STARLINK-1409 2.4 21:24:34 10° WSW 21:26:33 35° S 21:28:03 15° ESE
STARLINK-1437 2.4 21:24:34 10° WSW 21:26:33 35° S 21:28:06 14° ESE
STARLINK-1447 2.4 21:24:34 10° WSW 21:26:33 35° S 21:28:11 14° ESE
STARLINK-1455 2.4 21:24:34 10° WSW 21:26:33 35° S 21:28:11 14° ESE
STARLINK-1441 2.4 21:24:36 10° WSW 21:26:35 35° S 21:28:14 14° ESE
STARLINK-1443 2.4 21:24:38 10° WSW 21:26:38 35° S 21:28:23 13° ESE
STARLINK-1351 2.4 21:24:41 10° WSW 21:26:40 35° S 21:28:19 14° ESE
STARLINK-1418 2.4 21:24:41 10° WSW 21:26:40 35° S 21:28:18 14° ESE
STARLINK-1442 2.4 21:24:41 10° WSW 21:26:41 35° S 21:28:20 14° ESE
STARLINK-1403 2.4 21:24:41 10° WSW 21:26:41 35° S 21:28:23 13° ESE
STARLINK-1434 2.4 21:24:41 10° WSW 21:26:41 35° S 21:28:25 13° ESE
STARLINK-1448 2.4 21:24:43 10° WSW 21:26:42 35° S 21:28:21 14° ESE
STARLINK-1433 2.4 21:24:45 10° WSW 21:26:44 35° S 21:28:21 14° ESE
STARLINK-1449 2.4 21:24:45 10° WSW 21:26:45 35° S 21:28:26 13° ESE
STARLINK-1438 2.4 21:24:49 10° WSW 21:26:47 35° S 21:28:16 15° SE
STARLINK-1411 2.4 21:24:55 10° WSW 21:26:55 35° S 21:28:30 14° ESE
STARLINK-1412 2.4 21:24:55 10° WSW 21:26:55 35° S 21:28:34 14° ESE
BREEZE-M DEB (TANK) 3.1 21:21:12 10° W 21:27:07 34° SSW 21:29:40 10° SE
Alouette 2 Rocket 4.4 21:23:26 10° NNW 21:28:53 54° ENE 21:32:40 11° SE
Cosmos 2058 Rocket 4.0 21:25:03 10° NNW 21:29:13 40° W 21:32:37 15° SSW
STARLINK-1375 3.6 21:26:20 10° WSW 21:30:13 51° SSE 21:34:06 10° E
BREEZE-M DEB (TANK) 2.8 21:27:27 10° SW 21:30:32 21° S 21:32:33 10° ESE
FALCON 9 DEB 3.2 21:27:43 10° WSW 21:31:05 54° S 21:34:28 10° E
Cosmos 1980 Rocket 3.7 21:28:20 11° SSE 21:32:22 23° ESE 21:36:39 10° NE
STARLINK-60 3.2 21:29:20 10° W 21:32:24 45° S 21:35:28 10° ESE
STARLINK-1350 3.6 21:30:37 10° WSW 21:34:30 52° SSE 21:38:24 10° E
Helios 1B rocket 3.4 21:30:51 10° NNE 21:34:43 37° E 21:37:45 15° SSE
COSMOS 2455 3.7 21:29:51 10° WSW 21:35:44 52° NW 21:41:39 10° NE
USA 229 DEB 4.1 21:29:33 10° NW 21:36:40 74° NNE 21:44:10 10° ESE
USA 229 4.1 21:29:40 10° NW 21:36:46 73° NNE 21:44:16 10° ESE
Cosmos 1745 Rocket 4.1 21:32:08 15° S 21:37:16 71° E 21:43:24 10° NNE
NOSS 3-1 (C) 4.1 21:30:32 10° NW 21:37:32 78° NE 21:45:50 10° ESE
Cosmos 468 Rocket 4.3 21:34:06 16° S 21:38:02 51° ESE 21:43:01 10° NE
STARLINK-1352 3.6 21:34:58 10° WSW 21:38:53 53° SSE 21:42:48 10° E
ALOS 2 3.9 21:37:12 13° SSW 21:40:24 29° W 21:44:15 10° NNW
Cosmos 1937 Rocket 3.6 21:37:01 10° NNW 21:42:17 71° WSW 21:46:54 14° SSE
Cosmos 2369 4.4 21:38:14 15° S 21:42:28 40° ESE 21:47:43 10° NE
NOSS 3-4 (A) 4.3 21:36:39 10° W 21:42:41 55° NNW 21:49:20 10° NE
NOSS 3-4 (C) 4.3 21:36:44 10° W 21:42:47 55° NNW 21:49:26 10° NE
STARLINK-1368 3.6 21:39:21 10° WSW 21:43:16 54° S 21:47:12 10° E
Cosmos 2263 Rocket 3.0 21:37:59 10° NNW 21:43:31 52° NE 21:48:58 10° ESE
NOSS 3-1 (A) 4.3 21:38:37 10° NW 21:45:32 69° NNE 21:53:43 10° ESE
Cosmos 1812 Rocket 3.6 21:41:58 10° NNW 21:46:27 77° W 21:49:56 16° S
STARLINK-1369 3.6 21:43:15 10° WSW 21:47:08 54° S 21:51:02 10° E
Cosmos 2297 Rocket 3.1 21:42:11 10° NW 21:47:12 33° WSW 21:51:12 15° SSW
Cosmos 1455 2.2 21:43:30 10° N 21:47:16 74° ENE 21:50:17 15° SSE
ATLAS 5 CENTAUR R/B 1.3 21:45:44 10° WSW 21:48:11 54° NNW 21:50:14 10° NE
ERBS 3.7 21:45:57 10° W 21:48:29 20° SW 21:49:22 18° SSW
Meteor 1-29 4.3 21:45:34 10° NE 21:48:33 28° E 21:50:54 14° SSE
RESURS DK-1 3.8 21:44:46 10° WSW 21:48:39 37° NW 21:52:33 10° NNE
Cosmos 1626 3.0 21:46:19 13° SW 21:49:23 42° WNW 21:52:58 10° N
Meteor 1-24 Rocket 4.1 21:44:56 12° SSW 21:49:55 59° WNW 21:55:30 10° N
CZ-4C R/B 2.6 21:46:26 15° SSW 21:50:35 49° SE 21:56:34 10° NE
Cosmos 2219 4.4 21:46:10 10° NW 21:50:51 27° WSW 21:54:40 14° SSW
Cosmos 1898 Rocket 4.0 21:45:43 10° NW 21:50:51 48° WSW 21:54:58 15° S
Cosmos 1656 3.7 21:46:31 14° SSW 21:51:27 75° ESE 21:57:01 10° NE
STARLINK-1372 3.6 21:47:39 10° WSW 21:51:33 55° S 21:55:27 10° E
Lacrosse 4 Rocket 2.2 21:47:58 10° NW 21:51:58 37° WSW 21:54:47 17° S
STARLINK-43 4.4 21:52:11 18° SSW 21:54:03 27° SSE 21:57:13 10° E
Cosmos 372 Rocket 4.1 21:50:05 10° NNW 21:55:15 79° ENE 22:00:26 10° SSE
STARLINK-1378 3.5 21:52:02 10° WSW 21:55:57 56° S 21:59:51 10° E
Cosmos 921 Rocket 4.0 21:53:10 10° SW 21:57:19 43° WNW 22:01:34 10° NNE
Cosmos 1825 Rocket 4.5 21:54:25 13° SSE 21:57:58 40° E 22:02:03 10° NNE
Cosmos 1703 4.3 21:55:11 13° SSE 21:58:17 36° E 22:01:55 10° NNE
EO 1 Delta rocket 4.3 21:53:48 10° N 21:59:18 64° WNW 22:03:24 14° SSW
SL-4 R/B 2.7 21:55:12 10° W 21:59:50 45° SSW 22:04:24 10° ESE
STARLINK-1379 3.5 21:56:29 10° WSW 22:00:24 57° S 22:04:20 10° E
Cosmos 1602 Rocket 3.5 21:58:15 16° SSW 22:01:38 88° W 22:06:02 10° NNE
Cosmos 2082 4.1 21:56:25 10° NW 22:01:48 46° WSW 22:06:20 14° S
PSLV R/B 3.7 21:58:09 10° NNE 22:02:38 68° ESE 22:06:05 16° S
STARLINK-1329 3.5 22:00:12 10° WSW 22:04:07 58° S 22:08:04 10° E
STARLINK-29 3.2 22:02:00 10° W 22:05:05 46° S 22:08:11 10° ESE
Cosmos 2181 Rocket 4.2 22:00:10 10° N 22:06:41 77° ENE 22:13:08 10° SSE
Cosmos 2150 Rocket 4.1 22:01:35 10° NNW 22:06:48 76° ENE 22:11:57 10° SSE
STARLINK-1362 3.5 22:04:40 10° WSW 22:08:36 58° S 22:12:33 10° E
Cosmos 2322 Rocket 4.4 22:09:11 10° ESE 22:11:28 13° E 22:13:45 10° ENE
ATLAS 2AS CENTAUR R/B 3.9 22:03:49 10° W 22:11:39 53° NNW 22:19:09 10° ENE
STARLINK-1373 3.5 22:09:08 10° WSW 22:13:05 59° S 22:17:01 10° E
Resurs 1-4 Rocket 3.7 22:12:49 10° NE 22:17:18 27° E 22:21:47 10° SSE
STARLINK-1390 3.5 22:13:38 10° WSW 22:17:35 59° S 22:21:32 10° E
Cosmos 1697 Rocket 2.8 22:12:54 14° SSW 22:17:47 69° ESE 22:23:26 10° NE
STARLINK-33 4.4 22:17:23 17° S 22:18:17 19° SSE 22:20:35 10° ESE
ATLAS CENTAUR R/B 3.6 22:15:17 10° WNW 22:18:47 26° NNW 22:22:08 10° NE
Cosmos 2278 4.2 22:14:15 14° S 22:18:53 51° ESE 22:24:22 10° NE
BREEZE-M R/B 3.6 22:13:53 10° WSW 22:19:37 37° S 22:22:48 10° ESE
STARLINK-26 4.5 22:18:07 17° S 22:19:39 23° SSE 22:22:25 10° E
SJ 16-02 2.9 22:16:19 10° NW 22:19:44 22° W 22:22:33 13° SW
STARLINK-1320 3.0 22:17:25 10° WSW 22:20:28 51° S 22:23:31 10° ESE
Cosmos 1125 Rocket 3.9 22:15:37 10° NNW 22:20:49 66° ENE 22:26:01 10° SE
STARLINK-1322 3.0 22:17:46 10° WSW 22:20:49 51° S 22:23:52 10° ESE
STARLINK-1324 3.0 22:18:04 10° WSW 22:21:06 51° S 22:24:09 10° ESE
STARLINK-1294 3.0 22:18:23 10° W 22:21:26 51° S 22:24:30 10° ESE
STARLINK-1261 3.0 22:18:46 10° W 22:21:49 51° S 22:24:52 10° ESE
STARLINK-1325 3.0 22:19:07 10° W 22:22:10 51° S 22:25:13 10° ESE
STARLINK-1333 3.0 22:19:29 10° W 22:22:32 51° S 22:25:36 10° ESE
STARLINK-1334 3.0 22:19:46 10° W 22:22:49 51° S 22:25:52 10° ESE
Cosmos 841 Rocket 3.8 22:18:40 14° S 22:23:01 57° ESE 22:28:08 10° NNE
STARLINK-1326 3.0 22:20:06 10° W 22:23:08 51° S 22:26:12 10° ESE
STARLINK-1365 3.5 22:19:24 10° WSW 22:23:23 60° S 22:27:22 10° E
STARLINK-1323 3.0 22:20:28 10° W 22:23:32 51° S 22:26:35 10° ESE
STARLINK-1349 3.0 22:20:45 10° W 22:23:48 51° S 22:26:51 10° ESE
STARLINK-1336 3.0 22:21:06 10° W 22:24:09 51° S 22:27:12 10° ESE
STARLINK-1331 3.0 22:21:28 10° W 22:24:31 51° S 22:27:34 10° ESE
Cosmos 2227 Rocket 3.6 22:20:23 10° NW 22:24:38 22° WSW 22:28:23 12° SSW
STARLINK-1344 3.0 22:21:47 10° W 22:24:50 51° S 22:27:53 10° ESE
STARLINK-1343 3.0 22:22:09 10° W 22:25:12 51° S 22:28:15 10° ESE
NOSS 7 (E) 4.2 22:22:47 14° SW 22:25:25 63° SE 22:28:28 10° NE
STARLINK-1346 3.0 22:22:26 10° W 22:25:30 51° S 22:28:35 10° ESE
Cosmos 1709 Rocket 4.0 22:20:26 14° S 22:25:54 87° E 22:32:09 10° NNE
STARLINK-1328 3.0 22:22:52 10° W 22:25:55 51° S 22:28:58 10° ESE
STARLINK-1354 3.0 22:23:09 10° W 22:26:13 51° S 22:29:16 10° ESE
STARLINK-1347 3.0 22:23:28 10° W 22:26:31 51° S 22:29:34 10° ESE
STARLINK-1357 3.0 22:23:52 10° W 22:26:56 51° S 22:29:58 10° ESE
STARLINK-1335 3.0 22:24:10 10° W 22:27:13 51° S 22:30:16 10° ESE
STARLINK-1327 3.0 22:24:31 10° W 22:27:34 51° S 22:30:37 10° ESE
STARLINK-1340 3.0 22:24:49 10° W 22:27:52 51° S 22:30:54 10° ESE
STARLINK-1356 3.0 22:25:11 10° W 22:28:14 51° S 22:31:18 10° ESE
STARLINK-1345 3.0 22:25:30 10° W 22:28:33 51° S 22:31:36 10° ESE
STARLINK-1355 3.0 22:25:51 10° W 22:28:54 51° S 22:31:57 10° ESE
Cosmos 1570 Rocket 4.1 22:24:29 14° SSW 22:29:01 70° ESE 22:34:17 10° NNE
STARLINK-1321 3.0 22:26:12 10° W 22:29:15 51° S 22:32:18 10° ESE
Cosmos 1400 Rocket 2.9 22:25:20 10° NNW 22:29:31 86° E 22:33:35 10° SSE
DELTA 2 DEB (DPAF) 4.2 22:25:03 10° SSE 22:29:31 84° ENE 22:34:02 10° NNW
STARLINK-1358 3.0 22:26:35 10° W 22:29:38 51° S 22:32:41 10° ESE
STARLINK-1332 3.0 22:26:52 10° W 22:29:56 51° S 22:32:58 10° ESE
STARLINK-1348 3.0 22:27:12 10° W 22:30:15 51° S 22:33:18 10° ESE
Cosmos 1763 Rocket 3.5 22:25:57 13° SSW 22:30:33 81° WNW 22:35:40 10° NNE
STARLINK-1330 3.0 22:27:32 10° W 22:30:35 51° S 22:33:38 10° ESE
STARLINK-1363 3.0 22:27:52 10° W 22:30:55 51° S 22:33:57 10° ESE
Cosmos 2227 4.2 22:25:28 10° NW 22:31:15 80° WSW 22:37:01 10° SSE
STARLINK-1337 3.0 22:28:14 10° W 22:31:17 51° S 22:34:20 10° ESE
STARLINK-1342 3.0 22:28:34 10° W 22:31:37 50° S 22:34:40 10° ESE
STARLINK-1364 3.0 22:28:54 10° W 22:31:57 50° S 22:35:00 10° ESE
STARLINK-1376 3.0 22:29:14 10° W 22:32:17 50° S 22:35:20 10° ESE
STARLINK-1360 3.0 22:29:35 10° W 22:32:37 50° S 22:35:41 10° ESE
STARLINK-1361 3.0 22:29:55 10° W 22:32:58 50° S 22:36:00 10° ESE
SL-16 R/B 2.8 22:26:59 10° SSE 22:33:07 74° ENE 22:39:20 10° NNW
STARLINK-1367 3.0 22:30:11 10° W 22:33:15 50° S 22:36:20 10° ESE
STARLINK-1366 3.0 22:30:34 10° W 22:33:37 50° S 22:36:40 10° ESE
Cosmos 2298 Rocket 4.1 22:28:20 10° NNW 22:33:37 70° WSW 22:38:53 10° SSE
STARLINK-1338 3.5 22:30:51 10° W 22:34:46 59° S 22:38:41 10° ESE
STARLINK-66 4.2 22:34:44 16° SSW 22:36:27 25° SSE 22:39:09 10° E
Cosmos 1844 Rocket 4.2 22:32:38 10° NNW 22:37:55 39° NE 22:43:08 10° ESE
STARLINK-1316 4.5 22:37:17 15° S 22:38:35 20° SSE 22:40:56 10° E
GEOS 3 Rocket 3.7 22:33:24 10° SE 22:38:39 88° NE 22:44:01 10° NW
STARLINK-1257 4.5 22:38:07 15° S 22:39:28 20° SSE 22:41:51 10° E
STARLINK-52 3.4 22:37:20 10° W 22:40:21 38° SSW 22:43:22 10° SE
STARLINK-1256 4.5 22:39:03 15° S 22:40:26 20° SSE 22:42:49 10° E
IRAS Rocket 4.4 22:35:51 11° S 22:41:12 62° WSW 22:46:42 10° NNW
STARLINK-1213 4.4 22:39:55 15° S 22:41:18 20° SSE 22:43:42 10° E
CZ-4 R/B 4.2 22:36:40 10° N 22:41:21 58° WNW 22:45:38 12° SW
Cosmos 1758 Rocket 3.7 22:38:19 14° SSW 22:42:07 74° WNW 22:46:35 10° N
STARLINK-1263 4.4 22:40:46 15° S 22:42:12 20° SSE 22:44:36 10° E
STARLINK-1371 3.5 22:38:30 10° W 22:42:22 58° S 22:46:14 10° ESE
STARLINK-1259 4.4 22:41:40 15° S 22:43:08 21° SSE 22:45:32 10° E
STARLINK-1265 4.4 22:42:01 15° S 22:43:31 21° SSE 22:45:59 10° E
STARLINK-1285 4.4 22:42:31 15° S 22:44:00 21° SSE 22:46:26 10° E
STARLINK-1296 4.4 22:44:15 15° S 22:45:48 21° SSE 22:48:15 10° E
SL-16 R/B 3.7 22:41:45 10° SSE 22:46:19 26° ESE 22:50:55 10° NE
STARLINK-1341 3.5 22:42:44 10° W 22:46:36 58° S 22:50:27 10° ESE
STARLINK-1260 4.4 22:45:07 15° S 22:46:41 21° SSE 22:49:10 10° E
STARLINK-1318 4.4 22:45:59 15° SSW 22:47:35 22° SSE 22:50:04 10° E
STARLINK-75 4.1 22:45:38 15° SSW 22:47:39 26° SSE 22:50:26 10° E
Cosmos 2208 Rocket 4.1 22:43:07 13° SSW 22:47:56 80° ESE 22:53:21 10° NNE
USA 215 4.0 22:42:21 10° SSE 22:47:56 29° SW 22:53:33 10° WNW
CZ-2D R/B 3.0 22:43:18 10° NNE 22:48:16 42° E 22:53:12 10° SSE
STARLINK-1275 4.3 22:46:52 15° SSW 22:48:29 22° SSE 22:51:00 10° E
STARLINK-1309 4.3 22:47:43 15° SSW 22:49:22 22° SSE 22:51:52 10° E
Meteor 2-10 Rocket 4.5 22:45:29 10° NNW 22:50:03 32° W 22:54:09 12° SSW
STARLINK-1282 4.3 22:48:35 15° SSW 22:50:15 22° SSE 22:52:46 10° E
STARLINK-1313 4.2 22:49:31 15° SSW 22:51:20 24° SSE 22:53:56 10° E
STARLINK-1374 3.5 22:47:50 10° W 22:51:46 58° S 22:55:41 10° ESE
STARLINK-1279 4.2 22:50:25 15° SSW 22:52:15 24° SSE 22:54:52 10° E
STARLINK-1298 4.3 22:51:09 15° SSW 22:52:55 23° SSE 22:55:28 10° E
STARLINK-1293 4.3 22:52:02 14° SSW 22:53:50 23° SSE 22:56:24 10° E
Cosmos-2242 3.8 22:50:04 10° NNW 22:54:02 38° W 22:57:34 12° SSW
USA 81 4.4 22:49:37 12° SSW 22:54:24 57° WNW 22:59:39 10° N
STARLINK-1297 4.5 22:52:45 14° SSW 22:55:08 25° SSE 22:58:10 10° E
MOZ.5/SAFIR/RUBIN 5/SL-8 3.8 22:50:51 10° S 22:55:28 72° WSW 23:00:10 10° NNW
STARLINK-1255 4.2 22:53:47 14° SSW 22:55:39 23° SSE 22:58:13 10° E
STARLINK-22 4.2 22:53:52 14° SSW 22:55:55 25° SSE 22:58:39 10° E
STARLINK-1339 3.5 22:52:08 10° W 22:56:04 58° S 22:59:59 10° ESE
Cosmos 2221 2.9 22:52:36 10° N 22:56:57 65° ENE 23:01:18 10° SSE
STARLINK-1444 4.3 22:56:16 10° WSW 22:56:39 12° WSW 22:56:39 12° WSW
STARLINK 1040 2.9 22:56:00 11° WSW 22:58:17 37° SSE 23:00:41 10° E
STARLINK-1452 4.5 22:56:55 10° WSW 22:57:03 11° WSW 22:57:03 11° WSW
STARLINK-1311 4.0 22:56:51 14° SSW 22:58:41 25° SSE 23:01:11 10° E
SeaSat 1 4.1 22:56:03 10° NNE 23:00:22 31° NW 23:04:39 10° W
STARLINK-1377 3.6 22:56:27 10° W 23:00:23 57° S 23:04:19 10° ESE
Cosmos 1953 Rocket 3.6 22:56:23 12° SSW 23:00:27 82° WNW 23:04:53 10° N
GP-B 3.1 22:56:35 10° N 23:01:05 86° W 23:05:31 10° S
Cosmos 1842 Rocket 3.6 22:59:05 10° NNW 23:03:37 87° E 23:08:04 10° SSE
STARLINK-1353 3.6 23:00:46 10° W 23:04:42 57° S 23:08:37 10° ESE
Cosmos 1315 Rocket 2.9 23:01:04 10° NNW 23:05:01 79° ENE 23:08:58 10° SSE
Cosmos 540 Rocket 3.5 23:01:19 11° SSW 23:06:16 79° WNW 23:11:25 10° NNE
STARLINK-42 3.8 23:04:04 12° SW 23:06:32 31° SSE 23:09:19 10° E
CZ-4C R/B 3.7 23:03:12 10° S 23:07:35 64° WSW 23:12:01 10° NNW
FALCON 9 DEB 3.6 23:04:35 10° W 23:07:51 39° SSW 23:11:07 10° SE
STARLINK-60 4.3 23:05:38 10° W 23:08:00 19° SSW 23:10:22 10° SSE
Cosmos 2360 Rocket 4.3 23:05:08 10° SE 23:08:52 18° E 23:12:38 10° ENE
STARLINK-1375 3.6 23:05:07 10° W 23:09:02 56° S 23:12:58 10° ESE
STARLINK-34 4.3 23:07:19 13° SSW 23:09:11 21° SSE 23:11:34 10° E
Helios 1B rocket 3.7 23:06:13 10° N 23:09:58 33° WNW 23:13:41 10° SW
STARLINK-41 3.7 23:07:54 12° SW 23:10:19 30° SSE 23:13:02 10° E
STARLINK-1272 4.2 23:08:33 12° SW 23:11:25 30° SSE 23:14:35 10° E
Cosmos 2074 Rocket 4.1 23:06:57 10° S 23:13:15 82° E 23:19:33 10° NNE
STARLINK-1350 3.6 23:09:26 10° W 23:13:20 55° S 23:17:16 10° ESE
STARLINK-62 4.2 23:11:28 12° SSW 23:13:36 23° SSE 23:16:07 10° E
Cosmos 1980 Rocket 2.3 23:10:05 10° SW 23:15:43 87° NW 23:21:27 10° NE
STARLINK-1307 4.2 23:12:40 11° SW 23:15:52 32° SSE 23:19:13 10° E
STARLINK-1352 3.6 23:13:49 10° W 23:17:44 54° S 23:21:40 10° ESE
CZ-4B R/B 4.2 23:13:25 10° NNE 23:18:34 53° E 23:23:43 10° S
STARLINK-1290 4.2 23:16:02 10° SW 23:19:21 33° SSE 23:22:44 10° E
Cosmos 2058 4.2 23:15:55 10° SSE 23:19:49 38° E 23:23:45 10° NNE
Meteor 1-29 4.3 23:18:19 10° N 23:21:16 29° WNW 23:24:12 10° SW
STARLINK-1368 3.6 23:18:13 10° W 23:22:09 53° S 23:26:04 10° ESE
Cosmos 1455 4.3 23:20:25 10° NW 23:22:21 14° W 23:24:17 10° WSW
STARLINK-1317 4.1 23:21:59 10° SW 23:25:36 37° SSE 23:29:15 10° E
STARLINK-1369 3.6 23:21:57 10° W 23:25:48 52° SSW 23:29:40 10° ESE
Cosmos 2369 4.3 23:21:01 10° SW 23:26:34 54° NW 23:32:09 10° NNE
ADEOS II 3.3 23:21:46 10° NNE 23:26:41 38° E 23:31:34 10° SSE
Meteor 1-11 4.3 23:21:45 10° SSW 23:27:20 72° WNW 23:32:56 10° NNE
Cosmos 2263 Rocket 2.7 23:22:09 10° NW 23:27:22 41° WSW 23:32:33 10° S
USA 229 DEB 4.2 23:20:41 10° NW 23:27:29 46° SW 23:34:36 10° SSE
USA 229 4.2 23:20:48 10° NW 23:27:35 46° SW 23:34:42 10° SSE
NOSS 2-1 (C) 4.4 23:24:57 10° S 23:27:56 28° SE 23:31:12 10° ENE
NOSS 3-1 (C) 4.4 23:21:27 10° NW 23:28:21 45° SW 23:36:14 10° SSE
STARLINK-1372 3.7 23:26:23 10° W 23:30:14 51° SSW 23:34:06 10° ESE
IRS-1D 4.4 23:25:21 10° NNE 23:30:30 49° E 23:35:31 10° S
STARLINK-1274 4.0 23:27:40 10° SW 23:30:57 35° SSE 23:34:13 10° E
STARLINK-43 3.5 23:27:51 10° WSW 23:31:28 53° S 23:35:04 10° E
STARLINK-55 3.4 23:28:48 10° WSW 23:31:50 41° SSE 23:34:53 10° E
NOSS 2-1 (D) 4.2 23:29:45 10° S 23:32:48 31° SE 23:36:10 10° ENE
AQUA 4.1 23:29:07 10° NNE 23:33:54 67° ESE 23:38:38 10° S
STARLINK-1291 4.0 23:30:29 10° SW 23:33:57 38° SSE 23:37:25 10° E
STARLINK-1378 3.7 23:30:47 10° W 23:34:39 50° SSW 23:38:31 10° ESE
NPP 3.8 23:29:47 10° NNE 23:35:13 80° ESE 23:40:38 10° SSW
NOSS 3-1 (A) 4.2 23:29:32 10° NW 23:36:37 54° SW 23:44:47 10° SSE
ARIANE 5 R/B 4.1 23:32:35 10° NNE 23:36:58 29° E 23:41:18 10° SSE
STARLINK-1264 4.0 23:33:45 10° SW 23:37:14 39° SSE 23:40:44 10° E
Cosmos 2184 Rocket 4.1 23:32:10 10° SSW 23:38:19 74° WNW 23:44:32 10° N
UNK 4.3 23:34:00 10° S 23:38:21 41° W 23:42:42 10° NNW
SL-4 R/B 3.5 23:35:09 10° W 23:38:52 22° SW 23:42:30 10° SSE
CZ-4C R/B 2.9 23:33:35 10° WSW 23:39:02 61° NNW 23:45:42 10° NE
STARLINK-1379 3.7 23:35:16 10° W 23:39:08 49° SSW 23:42:59 10° ESE
STARLINK-1267 3.9 23:37:04 10° SW 23:40:34 40° SSE 23:44:06 10° E
STARLINK-29 4.3 23:38:20 10° W 23:40:46 20° SSW 23:43:10 10° SSE
Cosmos 1844 4.2 23:35:39 10° NNW 23:41:29 71° NE 23:47:16 10° SE
STARLINK-1329 3.7 23:39:01 10° W 23:42:52 48° SSW 23:46:43 10° ESE
STARLINK-28 3.3 23:40:14 10° WSW 23:43:19 45° S 23:46:25 10° E
STARLINK-1207 3.9 23:43:45 10° SW 23:47:17 42° SSE 23:50:51 10° E
STARLINK-1362 3.8 23:43:30 10° W 23:47:21 47° SSW 23:51:12 10° ESE
ERS-2 3.2 23:46:00 10° SE 23:49:31 48° ENE 23:53:06 10° N
STARLINK-1266 3.8 23:47:07 10° SW 23:50:40 43° SSE 23:54:14 10° E
